Weather History for KMIA - June, 2013

Change the Weather History Date:

Friday, June 14, 2013

  Actual Average Record
Temperature  
Mean Temperature 84 °F 83 °F  
Max Temperature 92 °F 90 °F 97 °F (2011)
Min Temperature 75 °F 76 °F 68 °F (1920)
Degree Days  
Heating Degree Days 0 0  
Month to date heating degree days 0 0  
Since 1 June heating degree days 0 0  
Since 1 July heating degree days 70 128  
Cooling Degree Days 19 18  
Month to date cooling degree days 244 243  
Year to date cooling degree days 1689 1599  
Since 1 June cooling degree days 244 243  
Growing Degree Days 33 (Base 50)    
Moisture  
Dew Point 72 °F    
Average Humidity 68    
Maximum Humidity 87    
Minimum Humidity 49    
Precipitation  
Precipitation 0.00 in 0.34 in 5.17 in (1933)
Month to date precipitation 4.59 4.31  
Year to date precipitation 23.96 19.66  
Snow  
Snow 0.00 in - - ()
Month to date snowfall 0.0  
Since 1 June snowfall 0.0  
Since 1 July snowfall 0.0  
Snow Depth 0.00 in    
Sea Level Pressure  
Sea Level Pressure 29.95 in    
Wind  
Wind Speed 6 mph (SW)    
Max Wind Speed 18 mph    
Max Gust Speed 23 mph    
Visibility 10 miles    
Events Thunderstorm    
T = Trace of Precipitation, MM = Missing Value Source: NWS Daily Summary

Daily Weather History Graph

Daily Weather History Graph

Search for Another Location

Airport or City:

Trip Planner

Search our weather history database for the weather conditions in past years. The results will help you decide how hot, cold, wet, or windy it might be!

Date:

Astronomy

Jun. 14, 2013 Rise Set
Actual Time 6:29 AM EDT 8:13 PM EDT
Civil Twilight 6:03 AM EDT 8:39 PM EDT
Nautical Twilight 5:32 AM EDT 9:11 PM EDT
Astronomical Twilight 4:59 AM EDT 9:44 PM EDT
Moon 11:35 AM EDT (6/14) No Moon Set
Length of Visible Light 14h 36m
Length of Day
13h 44m
Waxing Crescent, 30% of the Moon is Illuminated
Jun 14
Waxing Crescent
Jun 16
First Quarter
Jun 23
Full
Jun 30
Last Quarter
Jul 8
New

Hourly Weather History & Observations

Time (EDT) Temp. Heat Index Dew Point Humidity Pressure Visibility Wind Dir Wind Speed Gust Speed Precip Events Conditions
12:53 AM 79.0 °F - 72.0 °F 79% 29.99 in 10.0 mi SSW 5.8 mph - N/A   Mostly Cloudy
1:53 AM 79.0 °F - 72.0 °F 79% 29.97 in 10.0 mi SW 4.6 mph - N/A   Mostly Cloudy
2:53 AM 78.1 °F - 72.0 °F 81% 29.97 in 10.0 mi SW 3.5 mph - N/A   Mostly Cloudy
3:53 AM 77.0 °F - 71.1 °F 82% 29.96 in 10.0 mi Calm Calm - N/A   Mostly Cloudy
4:53 AM 75.9 °F - 72.0 °F 87% 29.93 in 10.0 mi Calm Calm - N/A   Mostly Cloudy
5:53 AM 75.9 °F - 71.1 °F 85% 29.93 in 10.0 mi SSW 3.5 mph - N/A   Scattered Clouds
6:53 AM 77.0 °F - 72.0 °F 84% 29.94 in 10.0 mi WSW 3.5 mph - N/A   Scattered Clouds
7:53 AM 80.1 °F 84.2 °F 73.0 °F 79% 29.95 in 10.0 mi WSW 4.6 mph - N/A   Scattered Clouds
8:53 AM 82.0 °F 86.3 °F 71.1 °F 69% 29.96 in 10.0 mi SW 8.1 mph - N/A   Scattered Clouds
9:53 AM 84.0 °F 89.0 °F 71.1 °F 65% 29.96 in 10.0 mi WSW 8.1 mph - N/A   Scattered Clouds
10:53 AM 86.0 °F 90.1 °F 69.1 °F 57% 29.97 in 10.0 mi WSW 9.2 mph - N/A   Scattered Clouds
11:53 AM 88.0 °F 90.7 °F 66.9 °F 49% 29.97 in 10.0 mi Variable 6.9 mph 17.3 mph N/A   Scattered Clouds
12:53 PM 89.1 °F 94.1 °F 70.0 °F 53% 29.96 in 10.0 mi WSW 8.1 mph - N/A   Mostly Cloudy
1:53 PM 91.0 °F 96.6 °F 70.0 °F 50% 29.95 in 10.0 mi SW 12.7 mph - N/A   Partly Cloudy
2:53 PM 91.0 °F 97.6 °F 71.1 °F 52% 29.92 in 10.0 mi West 9.2 mph - N/A   Mostly Cloudy
3:53 PM 90.0 °F 95.4 °F 70.0 °F 52% 29.91 in 10.0 mi WSW 10.4 mph - N/A   Mostly Cloudy
4:53 PM 91.9 °F 99.5 °F 72.0 °F 52% 29.91 in 10.0 mi West 10.4 mph - N/A   Mostly Cloudy
5:53 PM 84.9 °F 91.4 °F 73.0 °F 67% 29.90 in 10.0 mi South 9.2 mph - N/A   Mostly Cloudy
6:03 PM 84.2 °F 89.6 °F 71.6 °F 66% 29.91 in 10.0 mi SE 8.1 mph - N/A Thunderstorm Thunderstorm
6:29 PM 82.4 °F 87.2 °F 71.6 °F 70% 29.92 in 10.0 mi SE 9.2 mph 20.7 mph N/A   Overcast
6:53 PM 82.9 °F 88.0 °F 72.0 °F 69% 29.92 in 10.0 mi SSE 11.5 mph 18.4 mph N/A   Overcast
7:07 PM 82.4 °F 88.2 °F 73.4 °F 74% 29.93 in 10.0 mi SE 10.4 mph 17.3 mph N/A Thunderstorm Thunderstorm
7:29 PM 84.2 °F 89.6 °F 71.6 °F 66% 29.91 in 10.0 mi Variable 6.9 mph - N/A   Mostly Cloudy
7:53 PM 82.0 °F 86.7 °F 72.0 °F 71% 29.96 in 10.0 mi NNW 9.2 mph - N/A   Mostly Cloudy
8:53 PM 81.0 °F 85.2 °F 72.0 °F 74% 29.97 in 10.0 mi ENE 4.6 mph - N/A   Mostly Cloudy
9:53 PM 81.0 °F 85.8 °F 73.0 °F 77% 29.97 in 10.0 mi Calm Calm - N/A   Mostly Cloudy
10:53 PM 81.0 °F 85.8 °F 73.0 °F 77% 29.98 in 10.0 mi WSW 4.6 mph - N/A   Mostly Cloudy
11:53 PM 81.0 °F 85.8 °F 73.0 °F 77% 29.98 in 10.0 mi SW 4.6 mph - N/A   Mostly Cloudy